Location: Kolin
(50.0330°N, 15.2000°E)
Time: 12:35:46
(UTC+01:00)

ISS - Pass Details

Date: 24 November 2019
Orbit: 411 x 421 km, 51.6° (Epoch: 08 December)

Event Time Altitude Azimuth Distance (km) Brightness Sun altitude
Rises 18:25:02 0° 233° (SW) 2,350 1.0 -21.8°
Reaches altitude 10° 18:27:09 10° 227° (SW) 1,492 -0.3 -22.2°
Enters shadow 18:29:22 34° 202° (SSW) 714 -2.4 -22.5°
